This demonstration page uses our WeatherBlox Daily Observations layout. Learn more.

Left ArrowRight Arrow

38.88101, -77.10428

Hourly Observations for November 27, 2018

Temp ( °F °C ) Dew Point ( °F °C ) Humidity (%) Winds ( mph kmh ) Pressure ( in mb ) Visibility ( mi km ) Precip ( " mm )
12:52 am 00:52 Mostly Clear 43 6.1 28 -2.2 56 56 W 7 11 29.59 1002 10 16.0934 0 0
1:52 am 01:52 Mostly Clear 42 5.6 28 -2.2 58 58 WSW 7 11 29.61 1003 10 16.0934 0 0
2:52 am 02:52 Partly Cloudy 43 6.1 27 -2.8 53 53 W 12 19 29.63 1003 10 16.0934 0 0
3:52 am 03:52 Mostly Clear 42 5.6 25 -3.9 51 51 W 13 20 29.63 1003 10 16.0934 0 0
4:52 am 04:52 Mostly Clear 41 5 25 -3.9 53 53 WNW 16 26 29.64 1004 10 16.0934 0 0
5:52 am 05:52 Mostly Clear 41 5 24 -4.4 51 51 WNW 12 19 29.66 1004 10 16.0934 0 0
6:52 am 06:52 Mostly Clear 40 4.4 23 -5 51 51 W 8 13 29.68 1005 10 16.0934 0 0
7:52 am 07:52 Partly Cloudy 41 5 24 -4.4 51 51 W 15 24 29.68 1005 10 16.0934 0 0
8:52 am 08:52 Partly Cloudy 41 5 22 -5.6 47 47 WNW 20 31 29.7 1006 10 16.0934 0 0
9:52 am 09:52 Partly Cloudy 42 5.6 22 -5.6 45 45 WNW 21 33 29.72 1007 10 16.0934 0 0
10:52 am 10:52 Mostly Cloudy 42 5.6 23 -5 47 47 NW 22 35 29.7 1006 10 16.0934 0 0
11:52 am 11:52 Mostly Cloudy 42 5.6 23 -5 47 47 NW 21 33 29.69 1005 10 16.0934 0 0
12:52 pm 12:52 Mostly Cloudy 42 5.6 23 -5 47 47 NW 20 31 29.67 1005 10 16.0934 0 0
1:52 pm 13:52 Mostly Cloudy 43 6.1 22 -5.6 43 43 WNW 18 30 29.66 1004 10 16.0934 0 0
2:52 pm 14:52 Mostly Cloudy 42 5.6 22 -5.6 45 45 WNW 21 33 29.65 1004 10 16.0934 0 0
3:52 pm 15:52 Mostly Cloudy 40 4.4 21 -6.1 47 47 WNW 16 26 29.66 1004 10 16.0934 0 0
4:52 pm 16:52 Mostly Cloudy 39 3.9 20 -6.7 46 46 W 15 24 29.68 1005 10 16.0934 0 0
5:52 pm 17:52 Cloudy 39 3.9 20 -6.7 46 46 W 13 20 29.68 1005 10 16.0934 0 0
6:52 pm 18:52 Cloudy 38 3.3 21 -6.1 51 51 NW 20 31 29.68 1005 10 16.0934 0 0
7:52 pm 19:52 Cloudy 38 3.3 22 -5.6 52 52 NNW 15 24 29.68 1005 10 16.0934 0 0
8:52 pm 20:52 Cloudy 38 3.3 20 -6.7 48 48 NW 13 20 29.69 1006 10 16.0934 0 0
9:52 pm 21:52 Cloudy 37 2.8 18 -7.8 46 46 WNW 13 20 29.7 1006 10 16.0934 0 0
10:52 pm 22:52 Cloudy 37 2.8 17 -8.3 44 44 NW 17 28 29.69 1006 10 16.0934 0 0
11:52 pm 23:52 Cloudy 37 2.8 16 -8.9 42 42 NW 17 28 29.7 1006 10 16.0934 0 0

Powered by AerisWeather